Weather History for Chicago Midway, IL

Change the Weather History Date:

Sunday, May 5, 2013

  Actual Average Record
Temperature  
Mean Temperature 60 °F 58 °F  
Max Temperature 70 °F 67 °F 94 °F (1949)
Min Temperature 49 °F 48 °F 34 °F (1954)
Degree Days  
Heating Degree Days 5 8  
Month to date heating degree days 37 45  
Since 1 July heating degree days 5665 5816  
Cooling Degree Days 0 1  
Month to date cooling degree days 9 5  
Year to date cooling degree days 17 18  
Growing Degree Days 8 (Base 50)    
Moisture  
Dew Point 41 °F    
Average Humidity 50    
Maximum Humidity 71    
Minimum Humidity 29    
Precipitation  
Precipitation 0.00 in 0.13 in 0.83 in (1991)
Month to date precipitation 0.02 0.62  
Year to date precipitation 11.97 10.98  
Sea Level Pressure  
Sea Level Pressure 30.00 in    
Wind  
Wind Speed 9 mph (NNE)    
Max Wind Speed 20 mph    
Max Gust Speed 23 mph    
Visibility 10 miles    
Events      
T = Trace of Precipitation, MM = Missing Value Source: NWS Daily Summary

Daily Weather History Graph

Daily Weather History Graph

Search for Another Location

Airport:

Trip Planner

Search our weather history database for the weather conditions in past years. The results will help you decide how hot, cold, wet, or windy it might be!

Date:

Astronomy

May. 05, 2013 Rise Set
Actual Time 5:42 AM CDT 7:54 PM CDT
Civil Twilight 5:11 AM CDT 8:24 PM CDT
Nautical Twilight 4:33 AM CDT 9:02 PM CDT
Astronomical Twilight 3:51 AM CDT 9:44 PM CDT
Moon 3:16 AM CDT (5/5) 3:49 PM CDT (5/5)
Length of Visible Light 15h 13m
Length of Day
14h 12m
Waning Crescent, 18% of the Moon is Illuminated
May 5
Waning Crescent
May 9
New
May 17
First Quarter
May 24
Full
May 31
Last Quarter

Hourly Weather History & Observations

Time (CDT) Temp. Dew Point Humidity Pressure Visibility Wind Dir Wind Speed Gust Speed Precip Events Conditions
12:51 AM 53.1 °F 39.9 °F 61% 30.02 in 10.0 mi North 6.9 mph - N/A   Mostly Cloudy
1:51 AM 51.1 °F 39.9 °F 66% 30.01 in 10.0 mi NNW 9.2 mph - N/A   Mostly Cloudy
2:51 AM 50.0 °F 39.9 °F 68% 29.99 in 10.0 mi NNW 6.9 mph - N/A   Mostly Cloudy
3:51 AM 48.9 °F 39.9 °F 71% 30.00 in 10.0 mi NNE 8.1 mph - N/A   Mostly Cloudy
4:51 AM 48.9 °F 39.9 °F 71% 29.99 in 10.0 mi North 3.5 mph - N/A   Scattered Clouds
5:51 AM 48.9 °F 39.9 °F 71% 30.00 in 10.0 mi North 3.5 mph - N/A   Mostly Cloudy
6:51 AM 53.1 °F 42.1 °F 66% 30.01 in 10.0 mi North 3.5 mph - N/A   Mostly Cloudy
7:51 AM 57.9 °F 41.0 °F 53% 30.01 in 10.0 mi ENE 6.9 mph - N/A   Mostly Cloudy
8:51 AM 60.1 °F 41.0 °F 49% 30.01 in 10.0 mi NE 6.9 mph - N/A   Mostly Cloudy
9:51 AM 63.0 °F 42.1 °F 46% 30.01 in 10.0 mi NNE 8.1 mph - N/A   Mostly Cloudy
10:51 AM 66.0 °F 43.0 °F 43% 30.02 in 10.0 mi NNE 8.1 mph - N/A   Mostly Cloudy
11:51 AM 68.0 °F 43.0 °F 40% 30.01 in 10.0 mi NNE 11.5 mph - N/A   Mostly Cloudy
12:51 PM 68.0 °F 42.1 °F 39% 29.99 in 10.0 mi NNE 17.3 mph 23.0 mph N/A   Mostly Cloudy
1:51 PM 68.0 °F 43.0 °F 40% 29.99 in 10.0 mi NE 15.0 mph - N/A   Mostly Cloudy
2:51 PM 68.0 °F 42.1 °F 39% 29.98 in 10.0 mi NNE 17.3 mph - N/A   Overcast
3:51 PM 69.1 °F 44.1 °F 40% 29.97 in 10.0 mi NNE 16.1 mph - N/A   Mostly Cloudy
4:51 PM 66.2 °F 42.8 °F 43% 29.97 in 10.0 mi NNE 12.7 mph - N/A   Overcast
5:51 PM 64.0 °F 43.0 °F 46% 29.98 in 10.0 mi NNE 15.0 mph - N/A   Overcast
6:51 PM 61.0 °F 41.0 °F 48% 30.00 in 10.0 mi NE 10.4 mph - N/A   Mostly Cloudy
7:51 PM 57.9 °F 39.0 °F 49% 30.01 in 10.0 mi North 6.9 mph - N/A   Mostly Cloudy
8:51 PM 57.9 °F 37.9 °F 47% 30.01 in 10.0 mi North 8.1 mph - N/A   Mostly Cloudy
9:51 PM 57.9 °F 37.9 °F 47% 30.02 in 10.0 mi North 5.8 mph - N/A   Overcast
10:51 PM 57.0 °F 39.0 °F 51% 30.03 in 10.0 mi Calm Calm - N/A   Overcast
11:51 PM 55.9 °F 41.0 °F 57% 30.02 in 10.0 mi Calm Calm - N/A   Overcast